| time (UTC) | temp C | wind direction | speed KPH | gust KPH | rain 1hr cm | rain 24hr cm | rain mn cm | humidity % | barometer mb |
| 20260510142520 | 17 | 82 | 0.0 | 4.8 | 0.00 | 0.43 | 0.00 | 77 | 1013.6 |
| 20260510142017 | 17 | 56 | 1.6 | 4.8 | 0.00 | 0.43 | 0.00 | 80 | 1013.6 |
| 20260510141546 | 17 | 91 | 1.6 | 6.4 | 0.00 | 0.43 | 0.00 | 79 | 1013.6 |
| 20260510141020 | 17 | 94 | 1.6 | 6.4 | 0.00 | 0.43 | 0.00 | 80 | 1013.6 |
| 20260510140517 | 16 | 0 | 0.0 | 4.8 | 0.00 | 0.43 | 0.00 | 81 | 1013.6 |
| 20260510140036 | 16 | 0 | 1.6 | 4.8 | 0.00 | 0.43 | 0.00 | 82 | 1013.6 |
| 20260510135517 | 16 | 92 | 1.6 | 6.4 | 0.00 | 0.43 | 0.00 | 83 | 1013.6 |
| 20260510135020 | 16 | 105 | 1.6 | 6.4 | 0.00 | 0.43 | 0.00 | 83 | 1013.5 |
| 20260510134534 | 16 | 78 | 0.0 | 4.8 | 0.00 | 0.43 | 0.00 | 84 | 1013.5 |
| 20260510134018 | 15 | 74 | 0.0 | 4.8 | 0.00 | 0.43 | 0.00 | 86 | 1013.5 |
| 20260510133517 | 15 | 0 | 0.0 | 4.8 | 0.00 | 0.43 | 0.00 | 87 | 1013.6 |
| 20260510133043 | 15 | 119 | 1.6 | 4.8 | 0.00 | 0.43 | 0.00 | 86 | 1013.6 |
| 20260510132517 | 14 | 88 | 1.6 | 4.8 | 0.00 | 0.43 | 0.00 | 87 | 1013.6 |
| 20260510132017 | 15 | 0 | 0.0 | 0.0 | 0.00 | 0.43 | 0.00 | 88 | 1013.6 |
| 20260510131545 | 14 | 0 | 0.0 | 0.0 | 0.00 | 0.43 | 0.00 | 89 | 1013.5 |
| 20260510131017 | 13 | 0 | 0.0 | 4.8 | 0.00 | 0.43 | 0.00 | 90 | 1013.5 |
| 20260510130518 | 13 | 0 | 0.0 | 4.8 | 0.00 | 0.43 | 0.00 | 91 | 1013.7 |
| 20260510130047 | 13 | 347 | 0.0 | 4.8 | 0.00 | 0.43 | 0.00 | 91 | 1013.6 |
| 20260510125517 | 13 | 0 | 0.0 | 0.0 | 0.00 | 0.43 | 0.00 | 91 | 1013.7 |
| 20260510125020 | 13 | 0 | 0.0 | 0.0 | 0.00 | 0.43 | 0.00 | 92 | 1013.7 |
| 20260510124548 | 12 | 0 | 0.0 | 3.2 | 0.00 | 0.43 | 0.00 | 92 | 1013.7 |
| 20260510124020 | 12 | 0 | 0.0 | 3.2 | 0.00 | 0.43 | 0.00 | 93 | 1013.8 |
| 20260510123518 | 12 | 0 | 0.0 | 4.8 | 0.00 | 0.43 | 0.00 | 93 | 1013.6 |
| 20260510123037 | 12 | 0 | 0.0 | 6.4 | 0.00 | 0.43 | 0.00 | 93 | 1013.5 |
| 20260510122517 | 12 | 139 | 1.6 | 6.4 | 0.00 | 0.43 | 0.00 | 93 | 1013.4 |
| 20260510122017 | 11 | 169 | 1.6 | 6.4 | 0.00 | 0.43 | 0.00 | 93 | 1013.4 |
| 20260510121538 | 11 | 169 | 1.6 | 6.4 | 0.00 | 0.43 | 0.00 | 93 | 1013.3 |
| 20260510121018 | 11 | 157 | 1.6 | 8.0 | 0.00 | 0.43 | 0.00 | 94 | 1013.2 |
| 20260510120518 | 11 | 0 | 0.0 | 8.0 | 0.00 | 0.43 | 0.00 | 94 | 1013.2 |
| 20260510120034 | 11 | 157 | 3.2 | 6.4 | 0.00 | 0.43 | 0.00 | 94 | 1013.1 |
| 20260510115517 | 11 | 139 | 1.6 | 6.4 | 0.00 | 0.43 | 0.00 | 94 | 1013.0 |
| 20260510115017 | 11 | 134 | 1.6 | 6.4 | 0.00 | 0.43 | 0.00 | 94 | 1013.0 |
| 20260510114542 | 11 | 0 | 1.6 | 8.0 | 0.00 | 0.43 | 0.00 | 94 | 1013.0 |
| 20260510114018 | 11 | 176 | 0.0 | 8.0 | 0.00 | 0.43 | 0.00 | 93 | 1013.1 |
| 20260510113521 | 11 | 165 | 1.6 | 8.0 | 0.00 | 0.43 | 0.00 | 94 | 1012.8 |
| 20260510113039 | 11 | 0 | 0.0 | 3.2 | 0.00 | 0.43 | 0.00 | 94 | 1013.0 |
| 20260510112518 | 11 | 0 | 0.0 | 4.8 | 0.00 | 0.43 | 0.00 | 94 | 1013.1 |
| 20260510112017 | 11 | 160 | 0.0 | 4.8 | 0.00 | 0.43 | 0.00 | 94 | 1012.9 |
| 20260510111535 | 11 | 165 | 0.0 | 4.8 | 0.00 | 0.43 | 0.00 | 94 | 1012.8 |
| 20260510111018 | 11 | 143 | 0.0 | 3.2 | 0.00 | 0.43 | 0.00 | 94 | 1012.7 |
| 20260510110517 | 11 | 0 | 0.0 | 0.0 | 0.00 | 0.43 | 0.00 | 94 | 1012.9 |
| 20260510110041 | 10 | 0 | 0.0 | 0.0 | 0.00 | 0.43 | 0.00 | 94 | 1013.0 |
| 20260510105519 | 10 | 0 | 0.0 | 0.0 | 0.00 | 0.43 | 0.00 | 94 | 1013.0 |
| 20260510105019 | 10 | 0 | 0.0 | 0.0 | 0.00 | 0.43 | 0.00 | 93 | 1012.8 |
| 20260510104552 | 10 | 0 | 0.0 | 0.0 | 0.00 | 0.43 | 0.00 | 93 | 1012.7 |
| 20260510104017 | 10 | 0 | 0.0 | 0.0 | 0.00 | 0.43 | 0.00 | 93 | 1012.6 |
| 20260510103517 | 10 | 0 | 0.0 | 0.0 | 0.00 | 0.43 | 0.00 | 93 | 1012.4 |
| 20260510103040 | 10 | 0 | 0.0 | 0.0 | 0.00 | 0.43 | 0.00 | 93 | 1012.3 |
| 20260510102517 | 10 | 0 | 0.0 | 0.0 | 0.00 | 0.43 | 0.00 | 93 | 1012.2 |
| 20260510102019 | 10 | 0 | 0.0 | 0.0 | 0.00 | 0.43 | 0.00 | 93 | 1012.2 |
| 20260510101539 | 10 | 0 | 0.0 | 0.0 | 0.00 | 0.43 | 0.00 | 93 | 1012.2 |
| 20260510101018 | 10 | 0 | 0.0 | 3.2 | 0.00 | 0.43 | 0.00 | 93 | 1012.2 |
| 20260510100523 | 10 | 0 | 0.0 | 3.2 | 0.00 | 0.43 | 0.00 | 93 | 1012.3 |
| 20260510100034 | 10 | 0 | 0.0 | 3.2 | 0.00 | 0.43 | 0.00 | 93 | 1012.3 |
| 20260510095522 | 10 | 0 | 0.0 | 3.2 | 0.00 | 0.43 | 0.00 | 93 | 1012.1 |
| 20260510095018 | 10 | 0 | 0.0 | 0.0 | 0.00 | 0.43 | 0.00 | 93 | 1012.1 |
| 20260510094535 | 10 | 0 | 0.0 | 0.0 | 0.00 | 0.43 | 0.00 | 93 | 1012.2 |
| 20260510094017 | 10 | 0 | 0.0 | 3.2 | 0.00 | 0.43 | 0.00 | 93 | 1012.1 |
| 20260510093517 | 10 | 0 | 0.0 | 4.8 | 0.00 | 0.43 | 0.00 | 93 | 1012.1 |
| 20260510093047 | 10 | 152 | 1.6 | 4.8 | 0.00 | 0.43 | 0.00 | 93 | 1012.0 |
| 20260510092518 | 10 | 52 | 1.6 | 4.8 | 0.00 | 0.43 | 0.00 | 93 | 1012.0 |
| 20260510092017 | 10 | 0 | 0.0 | 1.6 | 0.00 | 0.43 | 0.00 | 93 | 1012.0 |
| 20260510091541 | 10 | 0 | 0.0 | 1.6 | 0.00 | 0.43 | 0.00 | 93 | 1012.1 |
| 20260510091017 | 10 | 0 | 0.0 | 3.2 | 0.00 | 0.43 | 0.00 | 93 | 1012.2 |
| 20260510090517 | 10 | 0 | 0.0 | 3.2 | 0.00 | 0.43 | 0.00 | 93 | 1012.0 |
| 20260510090039 | 10 | 0 | 0.0 | 6.4 | 0.00 | 0.43 | 0.00 | 93 | 1012.2 |
| 20260510085517 | 10 | 340 | 1.6 | 6.4 | 0.00 | 0.43 | 0.00 | 93 | 1012.2 |
| 20260510085017 | 10 | 0 | 1.6 | 6.4 | 0.00 | 0.43 | 0.00 | 93 | 1012.2 |
| 20260510084537 | 10 | 290 | 3.2 | 8.0 | 0.00 | 0.43 | 0.00 | 93 | 1012.3 |
| 20260510084018 | 10 | 315 | 0.0 | 12.9 | 0.00 | 0.43 | 0.00 | 93 | 1012.3 |
| 20260510083517 | 10 | 336 | 6.4 | 16.1 | 0.00 | 0.43 | 0.00 | 93 | 1012.3 |
| 20260510083045 | 10 | 352 | 4.8 | 16.1 | 0.00 | 0.43 | 0.00 | 93 | 1012.2 |
| 20260510082517 | 10 | 339 | 4.8 | 14.5 | 0.00 | 0.43 | 0.00 | 93 | 1012.2 |
| 20260510082017 | 10 | 348 | 6.4 | 12.9 | 0.00 | 0.43 | 0.00 | 93 | 1012.2 |
| 20260510081541 | 10 | 330 | 4.8 | 6.4 | 0.00 | 0.43 | 0.00 | 93 | 1012.1 |
| 20260510081018 | 10 | 0 | 0.0 | 0.0 | 0.00 | 0.43 | 0.00 | 93 | 1011.5 |
| 20260510080518 | 10 | 0 | 0.0 | 0.0 | 0.00 | 0.43 | 0.00 | 93 | 1011.5 |
| 20260510080034 | 10 | 0 | 0.0 | 0.0 | 0.00 | 0.43 | 0.00 | 92 | 1011.4 |
| 20260510075518 | 10 | 0 | 0.0 | 0.0 | 0.00 | 0.43 | 0.00 | 92 | 1011.3 |
| 20260510075017 | 10 | 0 | 0.0 | 0.0 | 0.00 | 0.43 | 0.00 | 92 | 1011.4 |
| 20260510074539 | 10 | 0 | 0.0 | 1.6 | 0.00 | 0.43 | 0.00 | 92 | 1011.3 |
| 20260510074020 | 10 | 0 | 0.0 | 1.6 | 0.00 | 0.43 | 0.00 | 92 | 1011.3 |
| 20260510073521 | 10 | 0 | 0.0 | 3.2 | 0.00 | 0.43 | 0.00 | 92 | 1011.3 |
| 20260510073034 | 10 | 0 | 0.0 | 4.8 | 0.00 | 0.43 | 0.00 | 92 | 1011.3 |
| 20260510072517 | 10 | 321 | 1.6 | 4.8 | 0.00 | 0.43 | 0.00 | 92 | 1011.4 |
| 20260510072021 | 10 | 321 | 0.0 | 4.8 | 0.00 | 0.43 | 0.00 | 92 | 1011.4 |
| 20260510071537 | 10 | 321 | 3.2 | 12.9 | 0.00 | 0.43 | 0.00 | 92 | 1011.3 |
| 20260510071016 | 10 | 317 | 3.2 | 12.9 | 0.00 | 0.43 | 0.00 | 92 | 1011.4 |
| 20260510070518 | 10 | 323 | 4.8 | 9.7 | 0.00 | 0.43 | 0.00 | 92 | 1011.5 |
| 20260510070036 | 10 | 347 | 4.8 | 8.0 | 0.00 | 0.43 | 0.00 | 92 | 1011.3 |
| 20260510065520 | 10 | 325 | 1.6 | 6.4 | 0.00 | 0.43 | 0.00 | 92 | 1011.1 |
| 20260510065021 | 10 | 338 | 3.2 | 6.4 | 0.00 | 0.43 | 0.00 | 92 | 1011.0 |
| 20260510064538 | 10 | 324 | 0.0 | 0.0 | 0.00 | 0.43 | 0.00 | 92 | 1010.9 |
| 20260510064018 | 10 | 0 | 0.0 | 0.0 | 0.00 | 0.43 | 0.00 | 91 | 1010.7 |
| 20260510063518 | 10 | 0 | 0.0 | 0.0 | 0.00 | 0.43 | 0.00 | 91 | 1010.7 |
| 20260510063041 | 10 | 0 | 0.0 | 0.0 | 0.00 | 0.43 | 0.00 | 91 | 1010.7 |
| 20260510062518 | 10 | 0 | 0.0 | 0.0 | 0.00 | 0.43 | 0.00 | 91 | 1010.7 |
| 20260510062017 | 10 | 0 | 0.0 | 0.0 | 0.00 | 0.43 | 0.00 | 91 | 1010.8 |
| 20260510061536 | 10 | 0 | 0.0 | 0.0 | 0.00 | 0.43 | 0.00 | 91 | 1010.8 |
| 20260510061017 | 10 | 0 | 0.0 | 0.0 | 0.00 | 0.43 | 0.00 | 91 | 1010.8 |
| 20260510060517 | 10 | 0 | 0.0 | 0.0 | 0.00 | 0.43 | 0.00 | 91 | 1010.8 |
| 20260510060037 | 10 | 0 | 0.0 | 0.0 | 0.00 | 0.43 | 0.00 | 91 | 1010.9 |
| 20260510055516 | 10 | 0 | 0.0 | 0.0 | 0.00 | 0.43 | 0.00 | 91 | 1010.9 |
| 20260510055017 | 10 | 0 | 0.0 | 0.0 | 0.00 | 0.43 | 0.00 | 91 | 1010.9 |
| 20260510054535 | 10 | 0 | 0.0 | 0.0 | 0.00 | 0.43 | 0.00 | 91 | 1011.0 |
| 20260510054016 | 10 | 0 | 0.0 | 0.0 | 0.00 | 0.43 | 0.00 | 91 | 1011.0 |
| 20260510053517 | 10 | 0 | 0.0 | 0.0 | 0.00 | 0.43 | 0.00 | 91 | 1011.2 |
| 20260510053035 | 10 | 0 | 0.0 | 0.0 | 0.00 | 0.43 | 0.00 | 91 | 1011.2 |
| 20260510052517 | 10 | 0 | 0.0 | 0.0 | 0.00 | 0.43 | 0.00 | 91 | 1011.2 |
| 20260510052017 | 10 | 0 | 0.0 | 0.0 | 0.00 | 0.43 | 0.00 | 90 | 1011.2 |
| 20260510051534 | 10 | 0 | 0.0 | 0.0 | 0.00 | 0.43 | 0.00 | 91 | 1011.3 |
| 20260510051017 | 10 | 0 | 0.0 | 0.0 | 0.00 | 0.43 | 0.00 | 91 | 1011.2 |
| 20260510050517 | 10 | 0 | 0.0 | 0.0 | 0.00 | 0.43 | 0.00 | 90 | 1011.2 |
| 20260510050043 | 10 | 0 | 0.0 | 0.0 | 0.00 | 0.43 | 0.00 | 90 | 1011.2 |
| 20260510045519 | 10 | 0 | 0.0 | 0.0 | 0.00 | 0.43 | 0.00 | 90 | 1011.3 |
| 20260510045017 | 10 | 0 | 0.0 | 0.0 | 0.00 | 0.43 | 0.00 | 90 | 1011.3 |
| 20260510044542 | 10 | 0 | 0.0 | 0.0 | 0.00 | 0.43 | 0.00 | 90 | 1011.3 |
| 20260510044017 | 10 | 0 | 0.0 | 0.0 | 0.00 | 0.43 | 0.00 | 90 | 1011.4 |
| 20260510043517 | 10 | 0 | 0.0 | 0.0 | 0.00 | 0.43 | 0.00 | 90 | 1011.5 |
| 20260510043037 | 11 | 0 | 0.0 | 0.0 | 0.00 | 0.43 | 0.00 | 90 | 1011.6 |
| 20260510042517 | 11 | 0 | 0.0 | 0.0 | 0.00 | 0.43 | 0.00 | 90 | 1011.5 |
| 20260510042020 | 11 | 0 | 0.0 | 0.0 | 0.00 | 0.43 | 0.00 | 90 | 1011.5 |
| 20260510041536 | 11 | 0 | 0.0 | 0.0 | 0.00 | 0.43 | 0.00 | 90 | 1011.4 |
| 20260510041017 | 11 | 0 | 0.0 | 0.0 | 0.00 | 0.43 | 0.00 | 90 | 1011.6 |
| 20260510040517 | 11 | 0 | 0.0 | 0.0 | 0.00 | 0.43 | 0.00 | 90 | 1011.5 |
| 20260510040037 | 11 | 0 | 0.0 | 0.0 | 0.00 | 0.43 | 0.00 | 90 | 1011.6 |
| 20260510035518 | 11 | 0 | 0.0 | 0.0 | 0.00 | 0.43 | 0.43 | 90 | 1011.6 |
| 20260510035016 | 11 | 0 | 0.0 | 0.0 | 0.00 | 0.43 | 0.43 | 90 | 1011.6 |
| 20260510034534 | 11 | 0 | 0.0 | 0.0 | 0.00 | 0.43 | 0.43 | 90 | 1011.6 |
| 20260510034017 | 11 | 0 | 0.0 | 0.0 | 0.00 | 0.43 | 0.43 | 90 | 1011.5 |
| 20260510033517 | 11 | 0 | 0.0 | 0.0 | 0.00 | 0.43 | 0.43 | 90 | 1011.4 |
| 20260510033051 | 11 | 0 | 0.0 | 0.0 | 0.00 | 0.43 | 0.43 | 90 | 1011.3 |
| 20260510032517 | 11 | 0 | 0.0 | 0.0 | 0.00 | 0.43 | 0.43 | 90 | 1011.2 |
| 20260510032018 | 11 | 0 | 0.0 | 0.0 | 0.00 | 0.43 | 0.43 | 90 | 1011.3 |
| 20260510031540 | 11 | 0 | 0.0 | 0.0 | 0.00 | 0.43 | 0.43 | 90 | 1011.2 |
| 20260510031016 | 11 | 0 | 0.0 | 0.0 | 0.00 | 0.43 | 0.43 | 90 | 1011.0 |
| 20260510030517 | 11 | 0 | 0.0 | 0.0 | 0.00 | 0.43 | 0.43 | 90 | 1011.0 |
| 20260510030035 | 11 | 0 | 0.0 | 0.0 | 0.00 | 0.43 | 0.43 | 90 | 1011.0 |
| 20260510025518 | 11 | 0 | 0.0 | 0.0 | 0.00 | 0.43 | 0.43 | 90 | 1010.8 |
| 20260510025018 | 11 | 0 | 0.0 | 0.0 | 0.00 | 0.43 | 0.43 | 89 | 1010.9 |
| 20260510024536 | 11 | 0 | 0.0 | 0.0 | 0.00 | 0.43 | 0.43 | 89 | 1010.9 |
| 20260510024017 | 11 | 0 | 0.0 | 0.0 | 0.00 | 0.43 | 0.43 | 89 | 1010.9 |
| 20260510023521 | 12 | 0 | 0.0 | 0.0 | 0.00 | 0.43 | 0.43 | 89 | 1010.9 |
| 20260510023042 | 12 | 0 | 0.0 | 1.6 | 0.00 | 0.43 | 0.43 | 89 | 1010.9 |
| 20260510022520 | 12 | 0 | 0.0 | 1.6 | 0.00 | 0.43 | 0.43 | 89 | 1010.8 |
| 20260510022018 | 12 | 0 | 0.0 | 1.6 | 0.00 | 0.43 | 0.43 | 89 | 1010.8 |
| 20260510021539 | 12 | 0 | 0.0 | 1.6 | 0.00 | 0.43 | 0.43 | 89 | 1010.8 |
| 20260510021018 | 12 | 0 | 0.0 | 1.6 | 0.00 | 0.43 | 0.43 | 89 | 1010.8 |
| 20260510020517 | 12 | 0 | 0.0 | 4.8 | 0.00 | 0.43 | 0.43 | 89 | 1010.7 |
| 20260510020035 | 12 | 0 | 0.0 | 4.8 | 0.00 | 0.43 | 0.43 | 89 | 1010.8 |
| 20260510015521 | 12 | 167 | 0.0 | 0.0 | 0.00 | 0.43 | 0.43 | 88 | 1010.7 |
| 20260510015016 | 12 | 0 | 0.0 | 0.0 | 0.00 | 0.43 | 0.43 | 88 | 1010.6 |
| 20260510014534 | 12 | 0 | 0.0 | 0.0 | 0.00 | 0.43 | 0.43 | 88 | 1010.6 |
| 20260510014019 | 12 | 0 | 0.0 | 0.0 | 0.00 | 0.43 | 0.43 | 88 | 1010.6 |
| 20260510013518 | 12 | 0 | 0.0 | 0.0 | 0.00 | 0.43 | 0.43 | 88 | 1010.7 |
| 20260510013042 | 12 | 0 | 0.0 | 0.0 | 0.00 | 0.43 | 0.43 | 88 | 1010.7 |
| 20260510012519 | 12 | 0 | 0.0 | 0.0 | 0.00 | 0.43 | 0.43 | 88 | 1010.7 |
| 20260510012016 | 12 | 0 | 0.0 | 0.0 | 0.00 | 0.43 | 0.43 | 87 | 1010.6 |
| 20260510011534 | 12 | 0 | 0.0 | 1.6 | 0.00 | 0.43 | 0.43 | 88 | 1010.6 |
| 20260510011019 | 12 | 0 | 0.0 | 4.8 | 0.00 | 0.43 | 0.43 | 88 | 1010.6 |
| 20260510010518 | 13 | 0 | 0.0 | 6.4 | 0.00 | 0.43 | 0.43 | 87 | 1010.6 |
| 20260510010041 | 13 | 167 | 1.6 | 6.4 | 0.00 | 0.43 | 0.43 | 87 | 1010.5 |
| 20260510005518 | 13 | 125 | 0.0 | 4.8 | 0.00 | 0.43 | 0.43 | 87 | 1010.5 |
| 20260510005020 | 13 | 132 | 0.0 | 4.8 | 0.00 | 0.43 | 0.43 | 87 | 1010.4 |
| 20260510004536 | 13 | 0 | 0.0 | 0.0 | 0.00 | 0.43 | 0.43 | 86 | 1010.3 |
| 20260510004018 | 13 | 0 | 0.0 | 0.0 | 0.00 | 0.43 | 0.43 | 86 | 1010.2 |
| 20260510003517 | 13 | 0 | 0.0 | 0.0 | 0.00 | 0.43 | 0.43 | 86 | 1010.4 |
| 20260510003035 | 13 | 0 | 0.0 | 0.0 | 0.00 | 0.43 | 0.43 | 86 | 1010.4 |
| 20260510002517 | 13 | 0 | 0.0 | 0.0 | 0.00 | 0.43 | 0.43 | 86 | 1010.4 |
| 20260510002017 | 13 | 0 | 0.0 | 0.0 | 0.00 | 0.43 | 0.43 | 85 | 1010.3 |
| 20260510001541 | 13 | 0 | 0.0 | 0.0 | 0.00 | 0.43 | 0.43 | 85 | 1010.3 |
| 20260510001018 | 13 | 0 | 0.0 | 0.0 | 0.00 | 0.43 | 0.43 | 85 | 1010.3 |
| 20260510000518 | 13 | 0 | 0.0 | 0.0 | 0.00 | 0.43 | 0.43 | 85 | 1010.2 |
| 20260510000044 | 13 | 0 | 0.0 | 0.0 | 0.00 | 0.43 | 0.43 | 85 | 1010.3 |
| 20260509235517 | 13 | 0 | 0.0 | 0.0 | 0.00 | 0.43 | 0.43 | 85 | 1010.3 |
| 20260509235017 | 13 | 0 | 0.0 | 0.0 | 0.00 | 0.43 | 0.43 | 85 | 1010.2 |
| 20260509234544 | 13 | 0 | 0.0 | 0.0 | 0.00 | 0.43 | 0.43 | 85 | 1010.3 |
| 20260509234019 | 14 | 0 | 0.0 | 0.0 | 0.00 | 0.43 | 0.43 | 85 | 1010.3 |
| 20260509233517 | 14 | 0 | 0.0 | 0.0 | 0.00 | 0.43 | 0.43 | 85 | 1010.4 |
| 20260509233040 | 14 | 0 | 0.0 | 0.0 | 0.00 | 0.43 | 0.43 | 85 | 1010.3 |
| 20260509232517 | 14 | 0 | 0.0 | 0.0 | 0.00 | 0.43 | 0.43 | 85 | 1010.3 |
| 20260509232022 | 14 | 0 | 0.0 | 0.0 | 0.00 | 0.43 | 0.43 | 85 | 1010.3 |
| 20260509231534 | 14 | 0 | 0.0 | 1.6 | 0.00 | 0.43 | 0.43 | 85 | 1010.3 |
| 20260509231016 | 14 | 0 | 0.0 | 3.2 | 0.00 | 0.43 | 0.43 | 86 | 1010.2 |
| 20260509230518 | 14 | 0 | 0.0 | 4.8 | 0.00 | 0.43 | 0.43 | 86 | 1010.2 |
| 20260509230050 | 14 | 0 | 0.0 | 4.8 | 0.00 | 0.43 | 0.43 | 86 | 1010.1 |
| 20260509225520 | 14 | 0 | 0.0 | 4.8 | 0.00 | 0.43 | 0.43 | 86 | 1010.2 |
| 20260509225016 | 13 | 0 | 1.6 | 4.8 | 0.00 | 0.43 | 0.43 | 86 | 1010.2 |
| 20260509224545 | 13 | 0 | 0.0 | 4.8 | 0.00 | 0.43 | 0.43 | 87 | 1010.2 |
| 20260509224017 | 13 | 0 | 0.0 | 4.8 | 0.00 | 0.43 | 0.43 | 87 | 1010.3 |
| 20260509223517 | 13 | 136 | 0.0 | 8.0 | 0.00 | 0.43 | 0.43 | 87 | 1010.3 |
| 20260509223047 | 13 | 0 | 1.6 | 8.0 | 0.00 | 0.43 | 0.43 | 87 | 1010.3 |
| 20260509222518 | 13 | 163 | 3.2 | 9.7 | 0.00 | 0.43 | 0.43 | 87 | 1010.3 |
| 20260509222017 | 13 | 168 | 3.2 | 9.7 | 0.00 | 0.43 | 0.43 | 87 | 1010.2 |
| 20260509221537 | 13 | 133 | 3.2 | 9.7 | 0.00 | 0.43 | 0.43 | 87 | 1010.2 |
| 20260509221017 | 13 | 131 | 3.2 | 9.7 | 0.00 | 0.43 | 0.43 | 87 | 1010.2 |
| 20260509220517 | 13 | 136 | 3.2 | 9.7 | 0.03 | 0.43 | 0.43 | 87 | 1010.2 |
| 20260509220036 | 13 | 157 | 3.2 | 9.7 | 0.03 | 0.43 | 0.43 | 87 | 1010.3 |
| 20260509215517 | 13 | 121 | 4.8 | 9.7 | 0.03 | 0.43 | 0.43 | 87 | 1010.3 |
| 20260509215017 | 13 | 113 | 3.2 | 8.0 | 0.03 | 0.43 | 0.43 | 87 | 1010.3 |
| 20260509214539 | 13 | 129 | 3.2 | 8.0 | 0.03 | 0.43 | 0.43 | 87 | 1010.3 |
| 20260509214020 | 13 | 171 | 1.6 | 6.4 | 0.13 | 0.43 | 0.43 | 87 | 1010.4 |
| 20260509213517 | 13 | 139 | 3.2 | 6.4 | 0.28 | 0.43 | 0.43 | 87 | 1010.4 |
| 20260509213035 | 13 | 186 | 1.6 | 6.4 | 0.30 | 0.43 | 0.43 | 87 | 1010.6 |
| 20260509212518 | 13 | 132 | 3.2 | 6.4 | 0.30 | 0.43 | 0.43 | 87 | 1010.6 |
| 20260509212021 | 13 | 0 | 0.0 | 6.4 | 0.30 | 0.43 | 0.43 | 87 | 1010.8 |
| 20260509211534 | 13 | 161 | 3.2 | 6.4 | 0.30 | 0.43 | 0.43 | 87 | 1010.7 |
| 20260509211017 | 13 | 161 | 0.0 | 3.2 | 0.30 | 0.43 | 0.43 | 88 | 1010.7 |
| 20260509210519 | 13 | 0 | 0.0 | 6.4 | 0.28 | 0.41 | 0.41 | 88 | 1010.6 |
| 20260509210047 | 13 | 0 | 0.0 | 6.4 | 0.28 | 0.41 | 0.41 | 88 | 1010.6 |
| 20260509205517 | 13 | 164 | 0.0 | 6.4 | 0.28 | 0.41 | 0.41 | 88 | 1010.5 |
| 20260509205018 | 13 | 164 | 1.6 | 6.4 | 0.28 | 0.41 | 0.41 | 88 | 1010.4 |
| 20260509204536 | 13 | 346 | 1.6 | 6.4 | 0.28 | 0.41 | 0.41 | 87 | 1010.5 |
| 20260509204017 | 13 | 0 | 1.6 | 6.4 | 0.13 | 0.25 | 0.25 | 87 | 1010.4 |
| 20260509203516 | 13 | 0 | 3.2 | 6.4 | 0.00 | 0.13 | 0.13 | 87 | 1010.6 |
| 20260509203048 | 13 | 0 | 1.6 | 6.4 | 0.00 | 0.13 | 0.13 | 87 | 1010.4 |
| 20260509202517 | 13 | 5 | 1.6 | 4.8 | 0.03 | 0.13 | 0.13 | 87 | 1010.2 |
| 20260509202017 | 13 | 360 | 1.6 | 9.7 | 0.03 | 0.13 | 0.13 | 87 | 1010.3 |
| 20260509201534 | 13 | 0 | 3.2 | 9.7 | 0.03 | 0.13 | 0.13 | 87 | 1010.3 |
| 20260509201019 | 13 | 334 | 4.8 | 9.7 | 0.03 | 0.13 | 0.13 | 87 | 1010.5 |
| 20260509200517 | 13 | 325 | 3.2 | 9.7 | 0.03 | 0.13 | 0.13 | 88 | 1010.6 |
| 20260509200044 | 13 | 5 | 1.6 | 9.7 | 0.03 | 0.13 | 0.13 | 88 | 1010.3 |
| 20260509195517 | 13 | 306 | 1.6 | 9.7 | 0.03 | 0.13 | 0.13 | 87 | 1010.5 |
| 20260509195016 | 13 | 344 | 1.6 | 8.0 | 0.03 | 0.13 | 0.13 | 87 | 1010.7 |
| 20260509194541 | 13 | 0 | 1.6 | 9.7 | 0.03 | 0.13 | 0.13 | 87 | 1010.8 |
| 20260509194017 | 13 | 12 | 3.2 | 12.9 | 0.03 | 0.13 | 0.13 | 87 | 1010.8 |
| 20260509193516 | 13 | 322 | 4.8 | 12.9 | 0.03 | 0.13 | 0.13 | 86 | 1010.9 |
| 20260509193040 | 13 | 333 | 6.4 | 12.9 | 0.05 | 0.13 | 0.13 | 87 | 1011.1 |
| 20260509192517 | 13 | 329 | 3.2 | 8.0 | 0.03 | 0.10 | 0.10 | 87 | 1011.1 |
| 20260509192017 | 13 | 332 | 1.6 | 8.0 | 0.05 | 0.10 | 0.10 | 87 | 1011.1 |
| 20260509191543 | 13 | 336 | 4.8 | 11.3 | 0.05 | 0.10 | 0.10 | 86 | 1011.2 |
| 20260509191017 | 13 | 329 | 4.8 | 11.3 | 0.05 | 0.10 | 0.10 | 86 | 1011.4 |
| 20260509190517 | 13 | 352 | 3.2 | 12.9 | 0.08 | 0.10 | 0.10 | 86 | 1011.4 |
| 20260509190034 | 13 | 326 | 6.4 | 12.9 | 0.08 | 0.10 | 0.10 | 86 | 1011.5 |
| 20260509185517 | 13 | 352 | 4.8 | 9.7 | 0.08 | 0.10 | 0.10 | 86 | 1011.5 |
| 20260509185018 | 13 | 12 | 4.8 | 9.7 | 0.10 | 0.10 | 0.10 | 86 | 1011.4 |
| 20260509184544 | 13 | 334 | 3.2 | 8.0 | 0.10 | 0.10 | 0.10 | 86 | 1011.5 |
| 20260509184019 | 13 | 297 | 3.2 | 8.0 | 0.10 | 0.10 | 0.10 | 86 | 1011.3 |
| 20260509183517 | 13 | 331 | 3.2 | 12.9 | 0.10 | 0.10 | 0.10 | 85 | 1011.4 |
| 20260509183046 | 13 | 15 | 4.8 | 12.9 | 0.08 | 0.08 | 0.08 | 84 | 1011.6 |
| 20260509182518 | 13 | 350 | 4.8 | 9.7 | 0.08 | 0.08 | 0.08 | 83 | 1011.6 |
| 20260509182017 | 13 | 340 | 3.2 | 12.9 | 0.05 | 0.05 | 0.05 | 83 | 1011.7 |
| 20260509181604 | 13 | 348 | 3.2 | 12.9 | 0.05 | 0.05 | 0.05 | 82 | 1011.7 |
| 20260509181024 | 13 | 315 | 4.8 | 12.9 | 0.05 | 0.05 | 0.05 | 81 | 1011.7 |
| 20260509180517 | 14 | 321 | 4.8 | 12.9 | 0.03 | 0.03 | 0.03 | 80 | 1011.7 |
| 20260509180109 | 14 | 328 | 4.8 | 16.1 | 0.03 | 0.03 | 0.03 | 79 | 1011.8 |
| 20260509175518 | 14 | 315 | 8.0 | 24.1 | 0.03 | 0.03 | 0.03 | 77 | 1011.8 |
| 20260509175017 | 15 | 292 | 6.4 | 24.1 | 0.00 | 0.00 | 0.00 | 76 | 1011.7 |
| 20260509174535 | 15 | 321 | 8.0 | 19.3 | 0.00 | 0.00 | 0.00 | 74 | 1011.7 |
| 20260509174017 | 15 | 330 | 9.7 | 19.3 | 0.00 | 0.00 | 0.00 | 73 | 1011.7 |
| 20260509173516 | 15 | 327 | 8.0 | 12.9 | 0.00 | 0.00 | 0.00 | 72 | 1011.6 |
| 20260509173042 | 15 | 335 | 4.8 | 12.9 | 0.00 | 0.00 | 0.00 | 72 | 1011.4 |
| 20260509172520 | 15 | 348 | 3.2 | 8.0 | 0.00 | 0.00 | 0.00 | 73 | 1011.3 |
| 20260509172017 | 15 | 0 | 1.6 | 11.3 | 0.00 | 0.00 | 0.00 | 74 | 1011.4 |
| 20260509171543 | 15 | 304 | 4.8 | 11.3 | 0.00 | 0.00 | 0.00 | 74 | 1011.4 |
| 20260509171017 | 15 | 303 | 4.8 | 14.5 | 0.00 | 0.00 | 0.00 | 75 | 1011.4 |
| 20260509170517 | 15 | 292 | 4.8 | 14.5 | 0.00 | 0.00 | 0.00 | 75 | 1011.4 |
| 20260509170049 | 15 | 343 | 6.4 | 14.5 | 0.00 | 0.00 | 0.00 | 77 | 1011.5 |
| 20260509165518 | 15 | 300 | 8.0 | 14.5 | 0.00 | 0.00 | 0.00 | 78 | 1011.5 |
| 20260509165017 | 15 | 288 | 6.4 | 14.5 | 0.00 | 0.00 | 0.00 | 79 | 1011.5 |
| 20260509164540 | 15 | 304 | 4.8 | 14.5 | 0.00 | 0.00 | 0.00 | 78 | 1011.5 |
| 20260509164017 | 15 | 336 | 8.0 | 16.1 | 0.00 | 0.00 | 0.00 | 77 | 1011.5 |
| 20260509163523 | 15 | 327 | 6.4 | 16.1 | 0.00 | 0.00 | 0.00 | 77 | 1011.5 |
| 20260509163038 | 15 | 322 | 8.0 | 16.1 | 0.00 | 0.00 | 0.00 | 75 | 1011.5 |
| 20260509162517 | 15 | 308 | 6.4 | 16.1 | 0.00 | 0.00 | 0.00 | 75 | 1011.5 |
| 20260509162018 | 15 | 292 | 8.0 | 16.1 | 0.00 | 0.00 | 0.00 | 74 | 1011.6 |
| 20260509161541 | 16 | 297 | 6.4 | 17.7 | 0.00 | 0.00 | 0.00 | 73 | 1011.7 |
| 20260509161016 | 16 | 300 | 8.0 | 17.7 | 0.00 | 0.00 | 0.00 | 73 | 1011.9 |
| 20260509160517 | 16 | 284 | 8.0 | 14.5 | 0.00 | 0.00 | 0.00 | 71 | 1012.0 |
| 20260509160036 | 16 | 296 | 6.4 | 16.1 | 0.00 | 0.00 | 0.00 | 69 | 1011.9 |
| 20260509155517 | 17 | 302 | 8.0 | 16.1 | 0.00 | 0.00 | 0.00 | 68 | 1012.0 |
| 20260509155017 | 17 | 325 | 8.0 | 16.1 | 0.00 | 0.00 | 0.00 | 67 | 1012.1 |
| 20260509154534 | 17 | 194 | 3.2 | 16.1 | 0.00 | 0.00 | 0.00 | 67 | 1012.2 |
| 20260509154020 | 17 | 162 | 6.4 | 16.1 | 0.00 | 0.00 | 0.00 | 66 | 1012.0 |
| 20260509153518 | 17 | 327 | 4.8 | 20.9 | 0.00 | 0.00 | 0.00 | 67 | 1011.9 |
| 20260509153041 | 17 | 300 | 8.0 | 20.9 | 0.00 | 0.00 | 0.00 | 67 | 1012.1 |
| 20260509152517 | 17 | 317 | 4.8 | 12.9 | 0.00 | 0.00 | 0.00 | 66 | 1012.1 |
| 20260509152019 | 17 | 316 | 3.2 | 12.9 | 0.00 | 0.00 | 0.00 | 67 | 1012.2 |
| 20260509151542 | 17 | 273 | 4.8 | 17.7 | 0.00 | 0.00 | 0.00 | 66 | 1012.2 |
| 20260509151017 | 17 | 0 | 6.4 | 17.7 | 0.00 | 0.00 | 0.00 | 66 | 1012.2 |
| 20260509150520 | 17 | 230 | 4.8 | 14.5 | 0.00 | 0.00 | 0.00 | 66 | 1012.1 |
| 20260509150039 | 17 | 264 | 3.2 | 14.5 | 0.00 | 0.00 | 0.00 | 66 | 1012.1 |
| 20260509145517 | 16 | 234 | 3.2 | 14.5 | 0.00 | 0.00 | 0.00 | 66 | 1012.1 |
| 20260509145017 | 16 | 210 | 4.8 | 17.7 | 0.00 | 0.00 | 0.00 | 66 | 1012.0 |
| 20260509144535 | 16 | 204 | 6.4 | 17.7 | 0.00 | 0.00 | 0.00 | 66 | 1012.0 |
| 20260509144019 | 16 | 186 | 4.8 | 16.1 | 0.00 | 0.00 | 0.00 | 66 | 1012.0 |
| 20260509143519 | 16 | 251 | 8.0 | 16.1 | 0.00 | 0.00 | 0.00 | 66 | 1011.9 |
| 20260509143039 | 16 | 298 | 3.2 | 14.5 | 0.00 | 0.00 | 0.00 | 67 | 1012.0 |